SPACEBEE-110 (48899 NORAD) Tracking and Keplerian Element Data

This shows tracking and keplerian element data for the satellite.

Feedback or suggestion? Click here.




ElementValue
Catalog48899
NameSPACEBEE-110
Epoch Orbit1679
Epoch Day287.91543778
Epoch Year2021
RAAN55.1377
Inclination97.5286
Eccentricity0.0009109
Argument of Perigee223.3812
Mean Anonmoly136.6702
Mean Motion15.12660907
Decay Rate3.904E-05
L11 48899U 21059W 21287.91543778 .00003904 00000-0 22681-3 0 9997
L22 48899 97.5286 55.1377 0009109 223.3812 136.6702 15.12660907 16790

Live tracking and technical data element details for SPACEBEE-110 (NORAD 48899). SPACEBEE-110 can be tracked NOW for your location showing map with azimuth and elevation plus other details from your city location.

Track the satellite on the map from your city or location and see movement details for azimuth, elevation, latitude, longitude, range, height, and movement on the map or in text.







IsCatalogInMostPopularTable: catalog: 48899, numindb: 18
Update: records affected: 1



GetName: 48899 SPACEBEE-110

Hit Count: updated at: Tue, 19 Oct 2021 08:10:00 GMT